Voltar ao catálogo

YUNYAO-1 38

AtivoMeteoSSO
NORAD 62730·PAYLOAD·🇨🇳 China
Este nome de satélite ainda não foi confirmado por fontes oficiais.

Lançado Jan 20, 2025 de Jiuquan Satellite Launch Center

Loading…

Próximas Passagens (próximas 24 horas)

TLE

AtualizadoSource: Space-Track

Época: Sep 14, 2026, 13:51 UTC

1 62730U 25013B   26257.57746706  .00002463  00000-0  14782-3 0  9993
2 62730  97.6644  67.1358 0014539  65.8786 294.3963 15.11806623 90837

Acompanhe YUNYAO-1 38 em tempo real com AllMySat

Download on the App Store